Find Starlink 5191

NORAD ID: 54763 Int'l Des: 2022-175 Owner: SPXS Country: US Constellation: starlink operational
LEOCIRCULAR

現在のビュー

3D地球を読み込み中...

About Starlink 5191

Starlink 5191 (NORAD 54763) is a starlink constellation satellite (v1.5) launched Dec 17, 2022 by SPXS of US. It operates in LEO, CIRCULAR orbit with a mass of 305.00 kg.

次回通過

Passes for default location (London). Set your location on the main map for personalized predictions.

高度履歴

Loading altitude history...

軌道要素

1 54763U 22175F 26265.34316312 .00000246 00000-0 18797-4 0 9994
2 54763 53.1637 237.3758 0001203 78.8530 281.2608 15.33549948209654
Epoch: Sep 22, 2026 • Age: 24 hours

現在のステータス

高度 466.1 km
遠地点 / 近地点 N/A
速度 7.64 km/s
衛星直下点 26.60°N, 96.4°W
打ち上げ日 Dec 17, 2022
運用期間 3.7 years
タイプ internet

技術仕様

分類 Payload
質量 305.00 kg
乾燥質量 290.00 kg
長さ 0.20 m
スパン 9.00 m
形状 ? Box + pan
製造者 SPXS
バスタイプ Starlink
フェーズステータス In Orbit
所有者/国 SPXS/US

Most Searched